Flag for U.S.A. Weather past 2 weeks in Hayward, California, U.S.A.

Now
58 °F

Clear.


Feels Like: 58 °F
Forecast: 47 / 67 °F
Wind: No wind

Location: Hayward Air Terminal

Current Time: Apr 1, 2015 at 9:39:57 PM

Latest Report: Apr 1, 2015 at 8:54 PM


Visibility: 10 mi

Pressure: 30.12 "Hg

Humidity: 67%

Dew point: 47 °F

Location of HaywardLocation

Historic Weather in Hayward — Graph

°F

Hayward temperature yesterday

Maximum temperature yesterday: 68 °F (at 1:54 PM)
Minimum temperature yesterday: 57 °F (at 1:54 AM)
Average temperature yesterday: 61 °F

Past Weeks' High & Low Weather Summary

 TemperatureHumidityPressure
High78 °F (Mar 26, 5:54 PM)88% (Mar 23, 12:01 AM)30.34 "Hg (Mar 23, 12:01 AM)
Low45 °F (Apr 1, 6:54 AM)24% (Mar 19, 2:54 PM)30.01 "Hg (Mar 19, 5:54 PM)
Average61 °F68%30.16 "Hg
* Reported Mar 17 8:54 PM — Apr 1 8:54 PM, Hayward, Weather by CustomWeather, © 2015

Note: Actual official high and low records may vary slightly from our data, if they occured in-between our weather recording intervals... More about our weather records

Advertising

Hayward weather history for previous 24 hours

 ConditionsComfort  
Time TempWeatherWind HumidityBarometerVisibility
8:54 PM
Wed, Apr 1
58 °FClear.No wind67%30.12 "Hg10 mi
7:54 PM58 °FSunny.9 mph65%30.11 "Hg10 mi
6:54 PM59 °FSunny.13 mph62%30.10 "Hg10 mi
5:54 PM61 °FSunny.15 mph56%30.11 "Hg10 mi
4:54 PM63 °FSunny.17 mph52%30.12 "Hg10 mi
3:54 PM64 °FSunny.20 mph47%30.13 "Hg10 mi
2:54 PM65 °FSunny.16 mph45%30.14 "Hg10 mi
1:54 PM66 °FSunny.14 mph40%30.16 "Hg10 mi
12:54 PM62 °FSunny.10 mph39%30.18 "Hg10 mi
11:54 AM63 °FSunny.14 mph30%30.19 "Hg10 mi
10:54 AM63 °FSunny.5 mph33%30.21 "Hg10 mi
9:54 AM60 °FSunny.8 mph36%30.22 "Hg10 mi
8:54 AM54 °FSunny.No wind49%30.22 "Hg10 mi
7:54 AM48 °FSunny.No wind63%30.22 "Hg10 mi
6:54 AM45 °FClear.No wind71%30.21 "Hg10 mi
5:54 AM46 °FClear.3 mph71%30.19 "Hg10 mi
4:54 AM47 °FClear.3 mph71%30.20 "Hg10 mi
3:54 AM50 °FClear.3 mph63%30.20 "Hg10 mi
2:54 AM49 °FClear.No wind69%30.21 "Hg10 mi
1:54 AM55 °FClear.No wind51%30.22 "Hg10 mi
12:54 AM55 °FClear.5 mph55%30.22 "Hg10 mi
11:54 PM
Tue, Mar 31
57 °FClear.9 mph58%30.21 "Hg10 mi
10:54 PM57 °FClear.9 mph60%30.21 "Hg10 mi
9:54 PM58 °FClear.12 mph58%30.20 "Hg10 mi
Weather by CustomWeather, © 2015

See weather overviewHow to use our weather pages